Regional Weather Roundup
Issued by NWS

Home | Current Version | Previous Version | Text Only | Print | Product List | Glossary Off
Versions: 1 2 3 4 5 6 7 8 9 10 11 12 13 14 15 16 17 18 19 20 21 22 23 24 25 26 27 28 29 30 31 32 33 34 35 36 37 38 39 40 41 42 43 44 45 46 47 48 49 50

000
ASUS43 KLOT 271158
RWRIL

ILLINOIS REGIONAL WEATHER ROUNDUP
NATIONAL WEATHER SERVICE CHICAGO/ROMEOVILLE IL
600 AM CST FRI FEB 27 2015

NOTE: "FAIR" INDICATES FEW OR NO CLOUDS BELOW 12,000 FEET WITH NO
SIGNIFICANT WEATHER AND/OR OBSTRUCTIONS TO VISIBILITY.

* THESE STATIONS ARE NOT UNDER NWS QUALITY CONTROL. THEY ALSO MAY NOT
  REPORT WEATHER SUCH AS PRECIPITATION OR FOG.

ILZ001-002-007-009-015-016-024-271300-
NORTHWEST ILLINOIS

CITY           SKY/WX    TMP DP  RH WIND       PRES   REMARKS
MOLINE         CLEAR    -11 -16  78 W7        30.58R WCI -26
6HR MIN TEMP: -12; 6HR MAX TEMP:  -1;

$$

ILZ003-004-008-010-011-017-018-271300-
NORTH CENTRAL ILLINOIS

CITY           SKY/WX    TMP DP  RH WIND       PRES   REMARKS
ROCKFORD       NOT AVBL
$$

ILZ005-006-012>014-019>023-271300-
NORTHEAST ILLINOIS

CITY           SKY/WX    TMP DP  RH WIND       PRES   REMARKS
CHICAGO-OHARE  FAIR      -1 -10  65 NW9       30.50R WCI -16
6HR MIN TEMP:  -2; 6HR MAX TEMP:   5;

CHICAGO-MIDWAY NOT AVBL
AURORA         CLEAR    -15 -21  74 W7        30.53R WCI -31
6HR MIN TEMP: -16; 6HR MAX TEMP:  -7;

WAUKEGAN       NOT AVBL
DUPAGE AIRPORT CLEAR     -7 -13  75 NW6       30.50R WCI -20
6HR MIN TEMP:  -7; 6HR MAX TEMP:  -1;

WHEELING       CLEAR      1  -9  62 NW8       30.52R WCI -13
6HR MIN TEMP:  -2; 6HR MAX TEMP:   3;

NORTHERLY ISL    N/A      8  -2  63 W6          N/A  WCI  -2
$$

LMZ740>746-271300-
SOUTHERN LAKE MICHIGAN

STATION/POSITION SKY/WX   TEMP    WIND        PRES    VSBY  WAVE
                          AIR SEA DIR/SP/G                  HT/PER
                          (F)     (DEG/KT/KT) (MB)    (MI)  (FT/S)
WAUKEGAN HARBOR             1     290/ 10/ 14   N/A
HARRISON CRIB               8     300/ 11/ 12   N/A
BURNHAM HARBOR              9     280/  6/  9   N/A
CALUMET HARBOR              6     290/  4/  6 1031.6R
MICHIGAN CITY               6     130/  5/  6   N/A
$$

ILZ025>027-034>036-040-047-049-050-058-095>099-271300-
WEST-CENTRAL ILLINOIS

CITY           SKY/WX    TMP DP  RH WIND       PRES   REMARKS
PITTSFIELD*    PTCLDY    -3  -8  79 W6        30.60R WCI -15
$$

ILZ028>032-037-038-041>044-048-051>054-059>061-271300-
CENTRAL ILLINOIS

CITY           SKY/WX    TMP DP  RH WIND       PRES   REMARKS
PEORIA         NOT AVBL
SPRINGFIELD    CLEAR    -11 -17  75 W5        30.59R WCI -23
6HR MIN TEMP: -12; 6HR MAX TEMP:   4;

TAYLORVILLE    NOT AVBL
$$

ILZ033-039-045-046-055>057-062-063-271300-
EAST-CENTRAL ILLINOIS

CITY           SKY/WX    TMP DP  RH WIND       PRES   REMARKS
$$

ILZ079-100>102-271300-
SOUTHWEST ILLINOIS

CITY           SKY/WX    TMP DP  RH WIND       PRES   REMARKS
CAHOKIA*       CLEAR      4  -3  73 N3        30.63R
$$

ILZ064>066-069>071-074>076-080>082-084>086-088>090-092>094-271300-
SOUTH-CENTRAL ILLINOIS

CITY           SKY/WX    TMP DP  RH WIND       PRES   REMARKS
CARBONDALE     FLURRIES   8  -1  66 N8        30.61R WCI  -4
6HR MIN TEMP:   8; 6HR MAX TEMP:  16; 6HR PCP: TRACE;

$$

ILZ067-068-072-073-078-083-087-091-271300-
SOUTHEAST ILLINOIS

CITY           SKY/WX    TMP DP  RH WIND       PRES   REMARKS
$$

ABBREVIATIONS USED IN REMARKS
   TC - TEMPERATURE IN CELSIUS
  WCI - WIND CHILL INDEX
   HX - HEAT INDEX
  VSB - VISIBILITY
$$



USA.gov is the U.S. government's official web portal to all federal, state and local government web resources and services.